Location: Ash Swamp
(41.5170°N, 74.6157°W)
Time: 02:46:56
(UTC+00:00)

Cosmos 1452 Rocket - Pass Details

Date: 14 July 2020
Orbit: 768 x 774 km, 74.1° (Epoch: 14 August)

Event Time Altitude Azimuth Distance (km) Brightness Sun altitude
Rises 03:02:29 0° 345° (NNW) 3,251 8.1 -20.8°
Reaches altitude 10° 03:04:57 10° 351° (N) 2,319 7.0 -21.1°
Maximum altitude 03:10:04 50° 66° (ENE) 979 3.9 -21.5°
Enters shadow 03:11:23 40° 109° (ESE) 1,119 4.0 -21.7°
